Flag for Germany Weather past 2 weeks in Remscheid, North Rhine-Westphalia, Germany

45 °F

Partly cloudy.

Feels Like: 36 °F
Forecast: 40 / 49 °F
Wind: 23 mph from Southwest

Location: Duesseldorf

Current Time: Nov 28, 2015 at 11:18:22 PM

Latest Report: Nov 28, 2015 at 10:50 PM

Visibility: N/A

Pressure: 29.83 "Hg

Humidity: 76%

Dew point: 37 °F

Location of RemscheidLocation

Historic Weather in Remscheid — Graph


Remscheid temperature yesterday

Maximum temperature yesterday: 45 °F (at 2:20 PM)
Minimum temperature yesterday: 32 °F (at 7:50 AM)
Average temperature yesterday: 38 °F

Past Weeks' High & Low Weather Summary

High61 °F (Nov 15, 11:50 AM)100% (Nov 14, 10:50 PM)30.30 "Hg (Nov 14, 10:50 PM)
Low32 °F (Nov 22, 7:20 AM)59% (Nov 18, 3:20 AM)29.39 "Hg (Nov 21, 7:20 AM)
Average46 °F83%29.89 "Hg
* Reported Nov 13 9:20 PM — Nov 28 9:20 PM, Remscheid, Weather by CustomWeather, © 2015

Note: Actual official high and low records may vary slightly from our data, if they occured in-between our weather recording intervals... More about our weather records


Remscheid weather history for previous 24 hours

Time TempWeatherWind HumidityBarometerVisibility
9:20 PM
Sat, Nov 28
45 °FPassing clouds.18 mph71%29.89 "HgN/A
8:50 PM45 °FPartly cloudy.21 mph71%29.89 "HgN/A
8:20 PM45 °FClear.21 mph71%29.92 "Hg10 mi
7:50 PM43 °FClear.18 mph76%29.92 "Hg10 mi
7:20 PM43 °FLight rain. Clear.16 mph71%29.92 "HgN/A
6:50 PM43 °FClear.14 mph71%29.95 "Hg10 mi
6:20 PM43 °FClear.13 mph66%29.95 "Hg10 mi
5:50 PM43 °FClear.14 mph71%29.95 "Hg10 mi
5:20 PM41 °FClear.15 mph76%29.98 "Hg10 mi
4:50 PM41 °FPartly cloudy.15 mph76%29.98 "HgN/A
4:20 PM43 °FScattered clouds.15 mph76%29.98 "HgN/A
3:50 PM43 °FPassing clouds.14 mph76%29.98 "HgN/A
3:20 PM45 °FPassing clouds.14 mph71%29.95 "HgN/A
2:50 PM45 °FPassing clouds.13 mph71%29.95 "HgN/A
2:20 PM45 °FPassing clouds.15 mph71%29.95 "HgN/A
1:50 PM45 °FPassing clouds.20 mph71%29.95 "HgN/A
1:20 PM45 °FScattered clouds.16 mph71%29.95 "HgN/A
12:50 PM45 °FPassing clouds.15 mph71%29.95 "HgN/A
12:20 PM45 °FPassing clouds.14 mph71%29.92 "HgN/A
11:50 AM45 °FPassing clouds.14 mph71%29.92 "HgN/A
11:20 AM45 °FPassing clouds.14 mph71%29.92 "HgN/A
10:50 AM45 °FPassing clouds.16 mph76%29.92 "HgN/A
10:20 AM43 °FPassing clouds.14 mph87%29.89 "HgN/A
9:50 AM43 °FScattered clouds.14 mph87%29.89 "HgN/A
9:20 AM43 °FScattered clouds.12 mph87%29.86 "HgN/A
8:50 AM43 °FSprinkles. Partly sunny.10 mph93%29.86 "HgN/A
8:20 AM43 °FSprinkles. Partly sunny.9 mph87%29.83 "HgN/A
7:20 AM43 °FPartly cloudy.13 mph87%29.80 "HgN/A
6:50 AM43 °FLight rain. Partly cloudy.16 mph93%29.77 "HgN/A
6:20 AM43 °FDrizzle. Mostly cloudy.14 mph93%29.74 "Hg5 mi
5:50 AM41 °FDrizzle. Mostly cloudy.13 mph100%29.71 "Hg4 mi
5:20 AM41 °FDrizzle. Mostly cloudy.13 mph93%29.71 "HgN/A
4:50 AM39 °FDrizzle. Mostly cloudy.14 mph93%29.71 "Hg5 mi
4:20 AM37 °FPartly cloudy.16 mph100%29.71 "Hg5 mi
3:50 AM37 °FDrizzle. Low clouds.17 mph93%29.71 "Hg2 mi
3:20 AM37 °FDrizzle. Low clouds.17 mph93%29.71 "Hg2 mi
2:50 AM37 °FDrizzle. Low clouds.17 mph87%29.71 "Hg4 mi
2:20 AM37 °FOvercast.16 mph81%29.71 "HgN/A
1:50 AM37 °FPassing clouds.15 mph81%29.74 "HgN/A
12:50 AM37 °FOvercast.16 mph81%29.77 "HgN/A
11:50 PM
Fri, Nov 27
37 °FPassing clouds.18 mph81%29.80 "HgN/A
11:20 PM37 °FPassing clouds.16 mph81%29.80 "HgN/A
Weather by CustomWeather, © 2015

See weather overviewHow to use our weather pages